Regional Weather Roundup
Issued by NWS Little Rock, AR

Home | Current Version | Previous Version | Text Only | Print | Product List | Glossary On
Versions: 1 2 3 4 5 6 7 8 9 10 11 12 13 14 15 16 17 18 19 20 21 22 23 24 25 26 27 28 29 30 31 32 33 34 35 36 37 38 39 40 41 42 43 44 45 46 47 48 49
000
ASUS44 KLZK 050805
RWRLZK

WEATHER ROUNDUP FOR ARKANSAS
NATIONAL WEATHER SERVICE LITTLE ROCK AR
300 AM CDT TUE MAY 05 2015

NOTE: "FAIR" INDICATES FEW OR NO CLOUDS BELOW 12,000 FEET WITH NO
SIGNIFICANT WEATHER AND/OR OBSTRUCTIONS TO VISIBILITY.

ARZ001-003-010-029-050900-
NORTHWEST ARKANSAS

CITY           SKY/WX    TMP DP  RH WIND       PRES   REMARKS
FAYETTEVILLE   CLEAR     53  53 100 CALM      30.12F FOG
FORT SMITH     CLEAR     62  56  80 NE6       30.09F
HARRISON       CLEAR     59  55  87 SE5       30.16S
BENTONVILLE    CLEAR    N/A N/A N/A SE6       30.12F
ROGERS         CLEAR     60  56  86 E8        30.13F
SILOAM SPGS    CLEAR     59  50  72 E6        30.12F
HIGHFILL       CLEAR     57  52  83 CALM      30.11F
$$

ARZ004-005-016-050900-
NORTH CENTRAL ARKANSAS

CITY           SKY/WX    TMP DP  RH WIND       PRES   REMARKS
BATESVILLE     CLEAR     59  54  82 CALM      30.16S
FLIPPIN        CLEAR     57  55  94 CALM      30.14S
MTN HOME       CLEAR     62  56  80 SE3       30.15S
$$

ARZ040-041-050900-
WEST CENTRAL ARKANSAS

CITY           SKY/WX    TMP DP  RH WIND       PRES   REMARKS
MENA           CLEAR     57  55  94 CALM      30.12S
MOUNT IDA      MOCLDY    71  59  65 VRB3      30.10F
$$

ARZ009-017-025-026-028-050900-
NORTHEAST ARKANSAS

CITY           SKY/WX    TMP DP  RH WIND       PRES   REMARKS
CORNING          N/A     63  54  72 CALM      30.17S
JONESBORO      PTCLDY    58  55  90 CALM      30.17S
NEWPORT        PTCLDY    62  54  75 CALM      30.17S
WALNUT RIDGE   CLEAR     61  50  67 CALM      30.16S
BLYTHEVILLE    PTCLDY    67  56  67 S7        30.18F
$$

ARZ022-023-033-042-044-050900-
CENTRAL ARKANSAS

CITY           SKY/WX    TMP DP  RH WIND       PRES   REMARKS
LITTLE ROCK    MOCLDY    66  58  75 CALM      30.14S
N LITTLE ROCK    N/A     69  59  70 S5        30.14S
JACKSONVILLE   MOCLDY    61  57  88 CALM      30.14S
SEARCY         CLOUDY    60  57  89 CALM      30.16F
HOT SPRINGS    CLOUDY    68  59  73 E6        30.13F
RUSSELLVILLE   CLEAR     62  59  90 CALM      30.12F
CLINTON        MOCLDY    57  57 100 CALM      30.17S FOG
$$

ARZ036-050900-
EAST ARKANSAS

CITY           SKY/WX    TMP DP  RH WIND       PRES   REMARKS
WEST MEMPHIS   CLOUDY    67  58  72 S8        30.16F
$$

ARZ050-053-066-070-073-050900-
SOUTHWEST ARKANSAS

CITY           SKY/WX    TMP DP  RH WIND       PRES   REMARKS
ARKADELPHIA    FAIR      66  65  97 CALM      30.13F
CAMDEN         CLEAR     64  59  82 CALM      30.13S
TEXARKANA      MOCLDY    68  63  84 SE9       30.10F
EL DORADO      CLEAR     65  62  90 SE3       30.13F
DE QUEEN       CLEAR     65  59  81 SE6       30.07F
$$

ARZ056-057-069-050900-
SOUTHEAST ARKANSAS

CITY           SKY/WX    TMP DP  RH WIND       PRES   REMARKS
PINE BLUFF     CLOUDY    68  60  75 CALM      30.14F
STUTTGART      CLOUDY    68  55  64 SE6       30.15S
MONTICELLO     CLOUDY    66  61  84 SE3       30.15F

$$





USA.gov is the U.S. government's official web portal to all federal, state and local government web resources and services.